Погода Викулово

Погода Викулово : погода сейчас, прогноз погоды и архив. Всё, что Вы хотите узнать о погоде Викулово!

Поиск расширенной информации на нашем сайте:

Другие новости

Новости СМИ2

Главная страница сайта

Новости сайта

02.10.2013

Напоминаем, что на нашем новом сайте вы можете получить высокодетализированные прогнозы погоды по пунктам России, СНГ и мира (включающие важные для авиации метеовеличины, такие как направление и скорость ветра, видимость, явления погоды, количество и форма облачности, нижняя и верхняя граница облачности), а также ознакомиться с разнообразными материалами по авиационной метеорологии и подборкой полезных ссылок на эту тему.

Сайт Метеоцентр.Азия посвящён разработке технологий оптимизации авиаметеорологического обслуживания, включая проектирование и перспективное создание нескольких автоматизированных авиаметеорологических систем:
- система выпуска высокодетальных прогностических карт явлений погоды для нижнего воздушного пространства по России и ближнему зарубежью;
- система верификации прогнозов TAF (выпускаемых синоптиками официальных АМСГ РФ и ближнего зарубежья) и AUTOTAF (выпускаемых сайтом Метеоцентр.Азия) - выявление ошибок, онлайн-сопоставление с фактической погодой METAR, автоматическое внесение коррективов в прогнозы при резком отклонении фактической погоды от прогноза, подсчёт оправдываемости прогнозов по элементам и в целом;
- система обработки, анализа и отображения авиаметеорологической информации для применения провайдерами метеорологической информации.

Рекомендуем: Купить природный камень песчаник в москве пластушка камень песчаник купить.

Погода Викулово - сегодня

Время (UTC), дата Ветер
(°,м/с) 
Видим.   Явления Облачность Т
(°С)
Тd
(°С)
f(%) Тe
(°С)
Pmin
(гПа)
dP
(гПа)
Po
(мм)
O2
(г/м3)
Тmin Tmax R s Состояние
почвы
15 26.03.17 170 (Ю) 10 км    10/0 средняя 
[As op]
+0.2 -4.8 69 -2  1012.3  -1.8  752  303    +3.2       
18 26.03.17 170 (Ю) 10 км    10/0 средняя 
[As op]
-1.4 -5 76 -4  1010.7  -1.7  751  305           
21 26.03.17 180 (Ю) 10 км    8/0 средняя 
[Ac As]
-2.7 -5.4 82 -5  1009.7  -1  750  306           
00 27.03.17 190 (Ю) 10 км    10/0 средняя 
[As op]
-2 -4.5 83 -4  1008.6  -1.1  749  305           
03 27.03.17 190 (Ю) 4000 м  слаб. снег  10/0 средняя 
[As op]
-1.2 -3 88 -3  1008.5  -0.1  749  304  -2.8    0.0  44  равномерный
сухой снег
100% 
06 27.03.17 200 (Ю) 10 км  {снег}  10/0 средняя 
[As op]
+1.5 -2 78 -1  1008.5  0.1  749  300           
09 27.03.17 210 (ЮЗ) 5{10}  20000 м    9/8 600 м верхняя 
[Cu med, cong|Ci fib]
+3.8 -4.8 53 +1  1008.6  0.2  749  298           
12 27.03.17 210 (ЮЗ) 4{10}  20000 м    9/0 верхняя 
[Cs]
+3.2 -5.9 51 +1  1009.5  0.8  750  299           
15 27.03.17 180 (Ю) 20000 м    9/0 средняя, верхняя 
[As trans|Cs]
+0.6 -6.5 59 1009.8  0.3  750  302    +4  0.0     
18 27.03.17 170 (Ю) 20000 м    10/0 средняя 
[As op]
+0.8 -3.8 71 -1  1009.2  -0.6  750  302           
21 27.03.17 180 (Ю) 4000 м  слаб. снег  10/0 средняя 
[As op]
-0.5 -2.2 88 -1  1008.6  -0.7  749  303           
00 28.03.17 010 (С) 4000 м  слаб. снег  10/0 средняя 
[As op]
-1.5 -2.3 94 -2  1005.9  -2.8  747  303           
03 28.03.17 320 (СЗ) 2000 м  снег  10/10 300 м 
[Ns]
-1 -1.8 94 -3  1004.4  -1.4  746  302  -1.9    44  равномерный
сухой снег
100% 
06 28.03.17 230 (ЮЗ) 20000 м  {снег}  8/8 600 м 
[Sc]
+1.2 -3.9 69 1005.9  1.5  747  300           
09 28.03.17 210 (ЮЗ) 20000 м    9/3 600 м верхняя 
[Cu hum|Ci fib]
+2.7 -6.2 52 +1  1006.8  748  299           
12 28.03.17 170 (Ю) 20000 м    9/1 600 м верхняя 
[Cu hum|Ci fib]
+1.4 -4.9 63 -1  1005.7  -1.2  747  300           
15 28.03.17 160 (Ю) 20000 м    10/0 средняя 
[As op]
+0.2 -4.3 72 -2  1003.6  -2.1  746  301    +3.1  0.4     
18 28.03.17 120 (ЮВ) 4000 м  слаб. снег  10/0 средняя 
[As op]
-0.4 -1.3 94 -1  999.4  -4.2  742  300           
21 28.03.17 180 (Ю) 4000 м  слаб. снег  10/10 300 м 
[Ns]
+0.4 -0.3 95 -1  995.9  -3.4  740  298           
00 29.03.17 220 (ЮЗ) 10 км  слаб. дождь{снег}  10/10 300 м 
[Ns]
+0.7 -0.6 91 -2  996.3  0.5  740  297           
03 29.03.17 220 (ЮЗ) 6-11{12}  20000 м  {дождь}  10/10 600 м 
[Sc]
-0.1 -5 70 -4  998.5  2.2  742  300  -0.5    44  равномерный
мокрый или
старый снег
100% 
06 29.03.17 210 (ЮЗ) 4{11}  20000 м  {дождь}  10/0 
[Sc]
+1.1 -4.3 67 -1  1000.3  1.8  743  299           
09 29.03.17 210 (ЮЗ) 5{10}  20000 м    8/0 средняя 
[Ac trans]
+3.5 -4.1 57 +1  1002.2  1.9  745  297           
12 29.03.17 210 (ЮЗ) 20000 м    3/0 средняя 
[Ac cast]
+3.4 -4 58 +1  1003.5  1.3  746  297           
15 29.03.17 170 (Ю) 4{10}  20000 м    3/0 
[Sc]
+0.9 -3.8 71 -1  1004.1  0.6  746  300    +3.7       
Время (UTC), дата Ветер
(°,м/с) 
Видим.   Явления Облачность Т
(°С)
Тd
(°С)
f(%) Тe
(°С)
Pmin
(гПа)
dP
(гПа)
Po
(мм)
O2
(г/м3)
Тmin Tmax R s Состояние
почвы

Для получения пояснительной информации подведите курсор к названию столбца.

ПОГОДА Викулово - архив

Всё, что Вы хотите узнать о погоде Викулово - удобно и подробно!

Выберите нужную дату (начиная с 1 января 2015* года) и нажмите кнопку "Найти".
Будут отображены архивные сводки погоды по пункту Викулово, начиная с указанной даты.


Отображать данные в формате CSV (для использования в таблицах Excel)


Внимание! Наш архив погоды предназначен исключительно для личного некоммерческого использования в познавательных целях. Если Вам необходимы официальные справки о состоянии погоды (для производственных, юридических, коммерческих и т.п. целей), обращайтесь в органы Росгидромета.

*Примечание: данная дата относится к архиву по метеостанциям СССР (Россия, СНГ, Балтия).
Архив по метеостанциям Зарубежной Европы и Азии (кроме Китая) хранится 10 дней, по другим регионам земного шара (Китай, Африка, Америка, Австралия, Океания) - 1 день.

Викулово - район местоположения метеостанции


Название, широта, долгота, высота метеостанции:
Викулово 56.8°ш. 70.6°д. 78 м над ур. моря [Российская Федерация]

Дополнительная информация

В oтличие oт бoльшинства пoгoдных сайтoв мы публикуем пoдрoбную метеoинфoрмацию в детальнoм прoфессиoнальнoм фoрмате.

Характеристики температуры и влажнoсти вoздуха измеряются на высoте 2 м в тени вдали oт зданий и деревьев.
Скoрoсть ветра измеряется на высoте 10 м (на урoвне рoста челoвека скoрoсть ветра ниже в 1.5-2 раза). Если метеoстанция нахoдится в гoрoде или в лесу, тo скoрoсть ветра занижена на 2-4 м/с пo сравнению с oткрытым местoм. Скoрoсть ветра над акватoриями крупных рек и oзёр, а также на вершинах хoлмoв на 2-5 м/с выше, чем в oбычных услoвиях.
Атмoсфернoе давление в разных тoчках местнoсти мoжет значительнo oтличаться oт давления на метеoстанции, в зависимoсти oт услoвий рельефа (при пoдъёме на 10 м давление пoнижается примернo на 1 мм рт.ст.).